Location: Vancouver
(49.2500°N, 123.1330°W)
Time: 00:40:23
(UTC-08:00)

S-56A Canister/Altair - Visible Passes

Search period start: 01 February 2015 00:00
Search period end: 11 February 2015 00:00
Orbit: 634 x 2501 km, 38.9° (Epoch: 30 January)

Date Brightness Start Highest point End Pass type
(mag) Time Alt. Az. Time Alt. Az. Time Alt. Az.
01 Feb 11.4 18:35:26 10° W 18:45:36 28° SSW 18:56:53 10° SSE visible
02 Feb 11.4 18:02:49 10° W 18:12:50 29° SSW 18:24:22 10° SSE visible
02 Feb 12.0 20:14:37 10° WSW 20:17:07 10° SW 20:18:21 10° SW visible
03 Feb 11.4 17:30:18 10° W 17:40:03 31° SSW 17:51:44 10° SSE visible
03 Feb 12.0 19:39:27 10° WSW 19:44:26 12° SW 19:48:34 10° SSW visible
04 Feb 11.9 19:05:40 10° WSW 19:11:46 14° SW 19:17:24 10° SSW visible
05 Feb 11.9 18:32:23 10° WSW 18:39:05 15° SW 18:45:44 10° SSW visible
06 Feb 11.9 17:59:25 10° WSW 18:06:25 17° SW 18:13:46 10° S visible
